• In Latvia
  • List of Countries
  • For 7 days
  • Water Temperature
  • Satellite Maps
  • Weather Map
  • Weather Widgets
  • user-avatar
    Login

    Hourly Weather Latiano

    Today, 18 July, Wednesday

    Time Temperature Precipitation Wind Pressure Humidity
    00:00 +26°C° 0 mm 6 mps 749 mmHg 68%
    01:00 +24°C° 0 mm 6 mps 749 mmHg 70%
    02:00 +24°C° 0 mm 6 mps 749 mmHg 71%
    03:00 +24°C° 0 mm 7 mps 749 mmHg 71%
    04:00 +24°C° 0 mm 7 mps 749 mmHg 72%
    05:00 +26°C° 0 mm 7 mps 749 mmHg 68%
    06:00 +27°C° 0 mm 7 mps 749 mmHg 64%
    07:00 +28°C° 0 mm 8 mps 749 mmHg 58%
    08:00 +29°C° 0 mm 8 mps 749 mmHg 53%
    09:00 +30°C° 0 mm 7 mps 750 mmHg 48%
    10:00 +32°C° 0 mm 7 mps 750 mmHg 43%
    11:00 +32°C° 0 mm 7 mps 750 mmHg 40%
    12:00 +33°C° 0 mm 7 mps 750 mmHg 38%
    13:00 +33°C° 0 mm 7 mps 750 mmHg 36%
    14:00 +33°C° 0 mm 7 mps 750 mmHg 35%
    15:00 +33°C° 0 mm 8 mps 750 mmHg 35%
    16:00 +33°C° 0 mm 8 mps 750 mmHg 34%
    17:00 +32°C° 0 mm 7 mps 750 mmHg 36%
    18:00 +30°C° 0 mm 7 mps 750 mmHg 39%
    19:00 +29°C° 0 mm 7 mps 750 mmHg 41%
    20:00 +28°C° 0 mm 6 mps 750 mmHg 43%
    21:00 +28°C° 0 mm 6 mps 750 mmHg 45%
    22:00 +27°C° 0 mm 6 mps 750 mmHg 47%
    23:00 +27°C° 0 mm 5 mps 750 mmHg 47%

    Tomorrow, 19 July, Thursday

    Time Temperature Precipitation Wind Pressure Humidity
    00:00 +27°C° 0 mm 5 mps 750 mmHg 48%
    01:00 +26°C° 0 mm 5 mps 750 mmHg 48%
    02:00 +26°C° 0 mm 5 mps 750 mmHg 46%
    03:00 +26°C° 0 mm 5 mps 750 mmHg 44%
    04:00 +26°C° 0 mm 5 mps 750 mmHg 42%
    05:00 +27°C° 0 mm 5 mps 750 mmHg 38%
    06:00 +28°C° 0 mm 5 mps 750 mmHg 35%
    07:00 +29°C° 0 mm 5 mps 750 mmHg 32%
    08:00 +32°C° 0 mm 5 mps 750 mmHg 30%
    09:00 +33°C° 0 mm 5 mps 750 mmHg 29%
    10:00 +34°C° 0 mm 5 mps 750 mmHg 27%
    11:00 +35°C° 0 mm 6 mps 750 mmHg 26%
    12:00 +35°C° 0 mm 6 mps 750 mmHg 26%
    13:00 +36°C° 0 mm 6 mps 750 mmHg 26%
    14:00 +35°C° 0 mm 6 mps 750 mmHg 26%
    15:00 +35°C° 0 mm 6 mps 750 mmHg 27%
    16:00 +35°C° 0 mm 6 mps 750 mmHg 28%
    17:00 +33°C° 0 mm 5 mps 750 mmHg 31%
    18:00 +32°C° 0 mm 5 mps 750 mmHg 34%
    19:00 +30°C° 0 mm 4 mps 749 mmHg 37%
    20:00 +29°C° 0 mm 4 mps 750 mmHg 39%
    21:00 +28°C° 0 mm 4 mps 750 mmHg 41%
    22:00 +28°C° 0 mm 4 mps 750 mmHg 43%
    23:00 +27°C° 0 mm 4 mps 750 mmHg 44%

    Day after tomorrow, 20 July, Friday

    Time Temperature Precipitation Wind Pressure Humidity
    00:00 +27°C° 0 mm 4 mps 750 mmHg 46%
    01:00 +27°C° 0 mm 5 mps 750 mmHg 47%
    02:00 +27°C° 0 mm 5 mps 750 mmHg 50%
    03:00 +26°C° 0 mm 5 mps 750 mmHg 52%
    04:00 +26°C° 0 mm 5 mps 750 mmHg 55%
    05:00 +27°C° 0 mm 5 mps 750 mmHg 53%
    06:00 +28°C° 0 mm 5 mps 750 mmHg 51%
    07:00 +29°C° 0 mm 5 mps 750 mmHg 49%
    08:00 +30°C° 0 mm 5 mps 750 mmHg 44%
    09:00 +32°C° 0 mm 5 mps 751 mmHg 39%
    10:00 +34°C° 0 mm 5 mps 751 mmHg 35%
    11:00 +34°C° 0 mm 5 mps 751 mmHg 32%
    12:00 +35°C° 0 mm 6 mps 751 mmHg 29%
    13:00 +35°C° 0 mm 6 mps 751 mmHg 27%
    14:00 +35°C° 0 mm 6 mps 750 mmHg 26%
    15:00 +35°C° 0 mm 6 mps 750 mmHg 25%
    16:00 +34°C° 0 mm 6 mps 750 mmHg 25%
    17:00 +33°C° 0 mm 5 mps 750 mmHg 28%
    18:00 +32°C° 0 mm 5 mps 750 mmHg 31%
    19:00 +29°C° 0 mm 4 mps 750 mmHg 34%
    20:00 +28°C° 0 mm 3 mps 750 mmHg 37%
    21:00 +28°C° 0 mm 3 mps 751 mmHg 39%
    22:00 +27°C° 0 mm 2 mps 751 mmHg 42%
    23:00 +27°C° 0 mm 2 mps 751 mmHg 41%

    21 July, Saturday

    Time Temperature Precipitation Wind Pressure Humidity
    00:00 +27°C° 0 mm 2 mps 751 mmHg 39%
    01:00 +27°C° 0 mm 2 mps 750 mmHg 38%
    02:00 +27°C° 0 mm 2 mps 750 mmHg 37%
    03:00 +26°C° 0 mm 2 mps 750 mmHg 37%
    04:00 +26°C° 0 mm 2 mps 750 mmHg 36%
    05:00 +27°C° 0 mm 2 mps 750 mmHg 35%
    06:00 +29°C° 0 mm 1 mps 750 mmHg 34%
    07:00 +30°C° 0 mm 1 mps 750 mmHg 33%
    08:00 +31°C° 0 mm 1 mps 751 mmHg 32%
    09:00 +33°C° 0 mm 1 mps 751 mmHg 31%
    10:00 +34°C° 0 mm 1 mps 751 mmHg 30%
    11:00 +36°C° 0 mm 2 mps 751 mmHg 30%
    12:00 +37°C° 0 mm 3 mps 750 mmHg 29%
    13:00 +38°C° 0 mm 3 mps 750 mmHg 28%
    14:00 +37°C° 0 mm 4 mps 750 mmHg 29%
    15:00 +37°C° 0 mm 5 mps 750 mmHg 30%
    16:00 +38°C° 0 mm 6 mps 750 mmHg 31%
    17:00 +35°C° 0 mm 6 mps 749 mmHg 35%
    18:00 +34°C° 0 mm 6 mps 749 mmHg 40%
    19:00 +32°C° 0 mm 6 mps 749 mmHg 44%
    20:00 +32°C° 0 mm 5 mps 749 mmHg 48%
    21:00 +30°C° 0 mm 5 mps 749 mmHg 51%
    22:00 +29°C° 0 mm 5 mps 749 mmHg 54%
    23:00 +29°C° 0 mm 4 mps 749 mmHg 54%

    22 July, Sunday

    Time Temperature Precipitation Wind Pressure Humidity
    00:00 +29°C° 0 mm 3 mps 749 mmHg 54%
    01:00 +29°C° 0 mm 2 mps 748 mmHg 54%
    02:00 +28°C° 0 mm 2 mps 748 mmHg 53%
    03:00 +28°C° 0 mm 2 mps 748 mmHg 51%
    04:00 +28°C° 0 mm 1 mps 747 mmHg 50%
    05:00 +29°C° 0 mm 2 mps 747 mmHg 47%
    06:00 +30°C° 0 mm 2 mps 747 mmHg 44%
    07:00 +31°C° 0 mm 2 mps 747 mmHg 42%
    08:00 +33°C° 0 mm 3 mps 747 mmHg 37%
    09:00 +35°C° 0 mm 4 mps 747 mmHg 32%
    10:00 +36°C° 0 mm 4 mps 746 mmHg 28%
    11:00 +37°C° 0 mm 5 mps 746 mmHg 27%
    12:00 +38°C° 0 mm 6 mps 745 mmHg 26%
    13:00 +38°C° 0 mm 6 mps 745 mmHg 25%
    14:00 +38°C° 0 mm 7 mps 744 mmHg 27%
    15:00 +38°C° 0 mm 7 mps 744 mmHg 28%
    16:00 +38°C° 0 mm 8 mps 744 mmHg 29%
    17:00 +35°C° 0 mm 8 mps 744 mmHg 34%
    18:00 +34°C° 0 mm 8 mps 744 mmHg 39%
    19:00 +32°C° 0 mm 8 mps 744 mmHg 44%
    20:00 +31°C° 0 mm 9 mps 744 mmHg 48%
    21:00 +29°C° 0 mm 9 mps 744 mmHg 51%
    22:00 +29°C° 0 mm 9 mps 744 mmHg 54%
    23:00 +28°C° 0 mm 9 mps 744 mmHg 56%

    23 July, Monday

    Time Temperature Precipitation Wind Pressure Humidity
    00:00 +28°C° 0 mm 9 mps 744 mmHg 57%
    01:00 +27°C° 0 mm 9 mps 744 mmHg 59%
    02:00 +27°C° 0.1 mm 8 mps 744 mmHg 61%
    03:00 +26°C° 0.1 mm 8 mps 744 mmHg 63%
    04:00 +26°C° 0.1 mm 7 mps 744 mmHg 64%
    05:00 +26°C° 0 mm 8 mps 744 mmHg 62%
    06:00 +27°C° 0 mm 8 mps 744 mmHg 59%
    07:00 +28°C° 0 mm 8 mps 745 mmHg 57%
    08:00 +29°C° 0 mm 7 mps 745 mmHg 52%
    09:00 +29°C° 0 mm 7 mps 745 mmHg 48%
    10:00 +30°C° 0 mm 7 mps 745 mmHg 44%
    11:00 +32°C° 0 mm 7 mps 745 mmHg 43%
    12:00 +32°C° 0 mm 8 mps 744 mmHg 42%
    13:00 +32°C° 0 mm 8 mps 744 mmHg 41%
    14:00 +32°C° 0 mm 8 mps 744 mmHg 42%
    15:00 +31°C° 0 mm 8 mps 744 mmHg 43%
    16:00 +31°C° 0 mm 8 mps 744 mmHg 44%
    17:00 +29°C° 0 mm 8 mps 744 mmHg 47%
    18:00 +28°C° 0 mm 8 mps 745 mmHg 51%
    19:00 +27°C° 0 mm 8 mps 745 mmHg 54%
    20:00 +27°C° 0.2 mm 8 mps 745 mmHg 56%
    21:00 +26°C° 0.2 mm 7 mps 745 mmHg 58%
    22:00 +26°C° 0.2 mm 7 mps 745 mmHg 60%
    23:00 +26°C° 0.1 mm 7 mps 745 mmHg 62%
    Show more